This demonstration page uses our WeatherBlox Daily Observations layout. Learn more.

Left ArrowRight Arrow

Hourly Observations for May 10, 2017

Temp ( °F °C ) Dew Point ( °F °C ) Humidity (%) Winds ( mph kmh ) Pressure ( in mb ) Visibility ( mi km ) Precip ( " mm )
12:15 am 00:15 Mostly Cloudy 60 15.7 46 7.7 59 59 E 15 24 29.83 1010 10 16 N/A
12:35 am 00:35 Mostly Cloudy 57 14 49 9.4 74 74 E 15 24 29.85 1011 10 16 N/A
12:55 am 00:55 Cloudy with Thunderstorms 57 14 48 8.7 71 71 ENE 21 33 29.85 1011 10 16 N/A
1:15 am 01:15 Cloudy with Nearby Thunderstorms 56 13.2 48 9 76 76 ENE 17 28 29.83 1010 10 16 N/A
1:35 am 01:35 Cloudy 56 13.4 48 9 75 75 ENE 23 37 29.83 1010 10 16 0.01 0.25
1:55 am 01:55 Cloudy with Strong Thunderstorms 55 12.9 49 9.2 78 78 NE 13 20 29.85 1011 7 11 0.08 2.03
2:15 am 02:15 Cloudy 54 12.3 49 9.7 84 84 NNW 6 9 29.88 1012 10 16 0.01 0.25
2:35 am 02:35 Cloudy 55 12.5 51 10.5 88 88 NE 5 7 29.88 1012 10 16 0.01 0.25
2:55 am 02:55 Cloudy with Thunderstorms 55 12.9 51 10.6 86 86 NW 8 13 29.88 1012 10 16 0.03 0.76
3:15 am 03:15 Cloudy with Strong Thunderstorms 53 11.7 51 10.6 93 93 NNW 5 7 29.94 1014 4 6 0.11 2.79
3:35 am 03:35 Cloudy with Nearby Thunderstorms 53 11.5 51 10.5 94 94 N 24 39 29.77 1008 3 4 0.32 8.13
3:55 am 03:55 Cloudy 53 11.6 52 11 96 96 NNE 13 20 29.80 1009 10 16 0.32 8.13
4:15 am 04:15 Cloudy 53 11.8 52 11 95 95 ENE 14 22 29.80 1009 10 16 N/A
4:35 am 04:35 Mostly Cloudy 53 11.7 52 10.9 95 95 ENE 12 19 29.80 1009 10 16 N/A
4:55 am 04:55 Partly Cloudy 53 11.7 51 10.7 94 94 ENE 22 35 29.80 1009 10 16 N/A
5:15 am 05:15 Clear 52 11.3 50 10.2 93 93 ENE 12 19 29.80 1009 10 16 N/A
5:35 am 05:35 Clear 52 11.2 50 10.1 93 93 ENE 12 19 29.80 1009 10 16 N/A
5:55 am 05:55 Clear 52 11 50 10 94 94 ENE 12 19 29.80 1009 10 16 N/A
6:15 am 06:15 Clear 52 10.9 50 9.8 93 93 E 6 9 29.80 1009 10 16 N/A
6:35 am 06:35 Mostly Cloudy 51 10.7 50 9.8 94 94 NE 6 9 29.85 1011 10 16 N/A
6:55 am 06:55 Cloudy 51 10.8 50 10 95 95 ENE 9 15 29.85 1011 7 11 N/A
7:15 am 07:15 Cloudy with Mist and Fog 52 11 51 10.3 95 95 ENE 7 11 29.85 1011 4 6 N/A
7:35 am 07:35 Cloudy with Mist and Fog 52 11.1 51 10.5 96 96 NE 7 11 29.83 1010 2 3 N/A
7:55 am 07:55 Cloudy with Mist and Fog 53 11.5 51 10.8 96 96 ENE 6 9 29.83 1010 1 2 N/A
8:15 am 08:15 Cloudy with Mist and Fog 53 11.5 52 11 97 97 NNE 8 13 29.85 1011 1 1 N/A
8:35 am 08:35 Cloudy with Mist and Fog 53 11.7 52 11.1 96 96 NNE 6 9 29.85 1011 1 1 N/A
8:55 am 08:55 Cloudy with Mist and Fog 53 11.9 53 11.4 97 97 N 5 7 29.85 1011 3 4 N/A
9:15 am 09:15 Cloudy with Mist and Fog 54 12 53 11.4 96 96 NNW 5 7 29.88 1012 3 5 N/A
9:35 am 09:35 Cloudy with Mist and Fog 54 12.2 53 11.5 96 96 N 7 11 29.88 1012 4 6 N/A
9:55 am 09:55 Cloudy with Mist and Fog 54 12.2 53 11.4 95 95 NNW 8 13 29.88 1012 4 6 N/A
10:15 am 10:15 Cloudy with Mist and Fog 54 12 52 11.2 95 95 NNW 9 15 29.88 1012 4 6 N/A
10:35 am 10:35 Cloudy with Mist and Fog 54 12.2 53 11.4 95 95 N 9 15 29.88 1012 5 8 N/A
10:55 am 10:55 Cloudy 55 13 53 11.9 93 93 N 8 13 29.88 1012 7 11 N/A
11:15 am 11:15 Cloudy 55 13 53 11.6 91 91 NNE 7 11 29.91 1013 7 11 N/A
11:35 am 11:35 Cloudy 56 13.3 53 11.8 91 91 N 13 20 29.88 1012 10 16 N/A
11:55 am 11:55 Cloudy 56 13.4 53 11.9 91 91 NNE 9 15 29.88 1012 7 11 N/A
12:15 pm 12:15 Cloudy 56 13.4 53 11.9 91 91 NNE 14 22 29.88 1012 7 11 N/A
12:35 pm 12:35 Cloudy 56 13.6 54 12 90 90 N 12 19 29.88 1012 7 11 N/A
12:55 pm 12:55 Cloudy 56 13.6 54 12 90 90 NNE 14 22 29.88 1012 7 11 N/A
1:15 pm 13:15 Cloudy 57 14 54 12.1 88 88 N 13 20 29.88 1012 10 16 N/A
1:35 pm 13:35 Cloudy 58 14.3 54 12.1 87 87 NNE 12 19 29.91 1013 10 16 N/A
1:55 pm 13:55 Cloudy 58 14.5 54 12.2 86 86 N 10 17 29.91 1013 10 16 N/A
2:15 pm 14:15 Cloudy 59 14.8 54 12.4 86 86 N 14 22 29.91 1013 10 16 N/A
2:35 pm 14:35 Cloudy 59 15.1 54 12.4 84 84 N 15 24 29.85 1011 10 16 N/A
2:55 pm 14:55 Cloudy 59 15.1 55 12.5 85 85 NNE 16 26 29.91 1013 10 16 N/A
3:15 pm 15:15 Cloudy 59 15.2 55 12.5 84 84 NNE 16 26 29.91 1013 10 16 N/A
3:35 pm 15:35 Cloudy 59 15.2 54 12.3 83 83 NNE 15 24 29.91 1013 10 16 N/A
3:55 pm 15:55 Cloudy 59 15.2 54 12.2 82 82 NNE 14 22 29.91 1013 10 16 N/A
4:15 pm 16:15 Cloudy 59 15.1 54 12.1 82 82 NNE 14 22 29.91 1013 10 16 N/A
4:35 pm 16:35 Cloudy 59 15 54 12.1 83 83 NNE 15 24 29.91 1013 10 16 N/A
4:55 pm 16:55 Cloudy 59 14.9 54 12.1 83 83 NNE 15 24 29.91 1013 10 16 N/A
5:15 pm 17:15 Cloudy 58 14.6 53 11.7 83 83 NE 15 24 29.91 1013 10 16 N/A
5:35 pm 17:35 Cloudy 58 14.7 53 11.7 82 82 NNE 17 28 29.91 1013 10 16 N/A
5:55 pm 17:55 Cloudy 58 14.3 53 11.4 83 83 NNE 13 20 29.94 1014 10 16 N/A
6:15 pm 18:15 Cloudy 58 14.5 53 11.5 82 82 N 13 20 29.94 1014 10 16 N/A
6:35 pm 18:35 Cloudy with Nearby Thunderstorms 58 14.5 53 11.6 83 83 NNE 17 28 29.91 1013 10 16 N/A
6:55 pm 18:55 Cloudy 58 14.5 53 11.5 82 82 N 18 30 29.91 1013 10 16 N/A
7:15 pm 19:15 Cloudy 57 14.1 52 11.3 83 83 NNE 17 28 29.91 1013 10 16 N/A
7:35 pm 19:35 Cloudy 58 14.3 53 11.5 83 83 NNE 17 28 29.91 1013 10 16 N/A
7:55 pm 19:55 Cloudy 57 14.1 52 11.3 83 83 N 14 22 29.94 1014 10 16 N/A
8:15 pm 20:15 Cloudy 57 14.1 52 11.1 82 82 NE 13 20 29.94 1014 10 16 N/A
8:35 pm 20:35 Cloudy 57 14.1 53 11.4 84 84 NE 9 15 29.97 1015 10 16 N/A
8:55 pm 20:55 Cloudy 57 13.9 52 11.1 83 83 NNE 9 15 29.97 1015 10 16 N/A
9:15 pm 21:15 Cloudy 57 13.7 52 11 84 84 NE 10 17 29.97 1015 10 16 N/A
9:35 pm 21:35 Cloudy 57 13.7 52 11.1 84 84 NE 10 17 29.97 1015 10 16 N/A
9:55 pm 21:55 Cloudy 57 13.7 52 11.2 85 85 NE 9 15 30.00 1016 10 16 N/A
10:15 pm 22:15 Cloudy 57 13.7 51 10.7 82 82 NE 14 22 30.00 1016 10 16 N/A
10:35 pm 22:35 Cloudy 56 13.6 51 10.5 82 82 NE 13 20 29.97 1015 10 16 N/A
10:55 pm 22:55 Cloudy 56 13.2 51 10.5 84 84 NNE 14 22 29.97 1015 10 16 N/A
11:15 pm 23:15 Mostly Cloudy 55 13 51 10.5 85 85 N 13 20 29.97 1015 10 16 N/A
11:35 pm 23:35 Partly Cloudy 55 12.5 51 10.5 88 88 NNE 10 17 30.00 1016 10 16 N/A
11:55 pm 23:55 Mostly Cloudy 55 12.7 51 10.6 87 87 NNE 9 15 29.97 1015 10 16 N/A

Powered by AerisWeather